Location: Bacea
(45.9500°N, 22.6667°E)
Time: 10:05:39
(UTC+00:00)

Cosmos 2263 Rocket - Pass Details

Date: 30 May 2022
Orbit: 825 x 847 km, 71.0° (Epoch: 30 June)

Event Time Altitude Azimuth Distance (km) Brightness Sun altitude
Rises 20:33:13 0° 318° (NW) 3,376 6.9 -17.4°
Reaches altitude 10° 20:36:33 10° 298° (WNW) 2,434 5.4 -17.7°
Maximum altitude 20:39:51 16° 262° (W) 2,023 4.4 -18.0°
Drops below altitude 10° 20:43:08 10° 225° (SW) 2,421 4.4 -18.2°
Enters shadow 20:44:18 - 216° (SW) 2,711 4.6 -18.3°
